SCP
0 0 0 0 0 0 0 0 0 0 0 0 0 0 0 0 0 0 0 0 0 0 0 0 0 0 0 0 0 0 0 0 0 0 0 0 0 0 0 0 0 0 0
0 0 0 0 0 0 0 0 0 0 0 0 0 0 0 0 0 0 0 0 0 0 0 0 0 0 0 0 0 0 0 0 0 0 0 0 0 0 0 0 0 0 0
0 0 0 0 0 0 0 0 0 0 0 0 0 0 0 0 0 0 0 0 0 0 0 0 0 0 0 0 0 0 0 0 0 0 0 0 0 0 0 0 0 0 0
0 0 0 0 0 0 0 0 0 0 0 0 0 0 0 0 0 0 0 0 0 0 0 0 0 0 0 0 0 0 0 0 0 0 0 0 0 0 0 0 0 0 0
0 0 -0 -0 -0 -0 -0 0 0 0 0 0 0 0 0 0 0 0 0 0 0 0 0 0 0 0 0 0 0 0 0 0 0 0 0 0 0 0 0 0 0 0 0
-0 -0 -0 -0 -0 -0 -0 -0 0 0 0 0 0 0 0 0 0 0 0 0 0 0 0 0 0 0 0 0 0 0 0 0 0 0 0 0 0 0 0 0 0 0 0
-0 -0 -0 -0 -0 0 0 0 0 0 0 0 0 0 0 0 0 0 0 0 0 0 0 0 0 0 0 0 0 0 0 0 0 0 0 0 0 0 0 0 0 0 0
-0 -0 -0 0 0 0 0 0 0 0 0 0 0 0 0 0 0 0 0 0 0 0 0 0 0 0 0 0 0 0 0 0 0 0 0 0 0 0 0 0 0 0 0
0 0 0 0 0 0 0 0 0 0 0 0 0 0 0 0 0 0 0 0 0 0 0 0 0 0 0 0 0 0 0 0 0 0 0 0 0 0 0 0 0 0 0
0 0 0 0 -0 0 0 0 0 0 0 0 0 0 0 0 0 0 0 0 0 0 0 0 0 0 0 0 0 0 0 0 0 0 0 0 0 0 0 0 0 0 0
0 0 0 0 0 0 0 0 0 0 0 0 0 0 0 0 0 0 0 0 0 0 0 0 0 0 0 0 0 0 0 0 0 0 0 0 0 0 0 0 0 0 0
0 0 0 0 0 0 0 0 0 0 0 0 0 0 0 0 0 0 0 0 0 0 0 0 0 0 0 0 0 0 0 0 0 0 0 0 0 0 0 0 0 0 0
0 0 0 0 0 0 0 0 0 0 0 0 0 0 0 0 0 0 0 0 0 0 0 0 0 0 0 0 0 0 0 0 0 0 0 0 0 0 0 0 0 0 0
0 0 0 0 0 0 0 0 0 0 0 0 0 0 0 0 0 0 0 0 0 0 0 0 0 0 0 0 0 0 0 0 0 0 0 0 0 0 0 0 0 0 0
0 0 0 0 0 0 0 0 0 0 0 0 0 0 0 0 0 0 0 0 0 0 0 0 0 0 0 0 0 0 0 0 0 0 0 0 0 0 0 0 0 0 0
0 0 0 0 0 0 0 -0 0 0 0 -0 -0 0 0 0 0 -0 0 0 0 0 0 0 0 0 0 0 0 0 0 0 0 0 0 0 0 0 0 0 0 0 0
0 0 0 0 0 0 0 0 0 -0 0 0 0 -0 0 0 -0 0 0 0 0 0 0 0 0 0 0 0 0 0 0 0 0 0 0 0 0 0 0 0 0 0 0
0 0 0 0 0 0 0 0 0 0 0 0 0 0 0 0 -0 0 0 0 0 0 0 0 0 0 0 0 0 0 0 0 0 0 0 0 0 0 0 0 0 0 0
0 0 0 0 0 0 0 0 0 0 0 0 0 0 0 0 0 0 0 0 0 0 0 0 0 0 0 0 0 0 0 0 0 0 0 0 0 0 0 0 0 0 0
0 0 0 -0 -0 -0 -0 -0 0 0 0 0 0 0 0 0 0 0 0 0 0 0 0 0 0 0 0 0 0 0 0 0 0 0 0 0 0 0 0 0 0 0 0
0 -0 0 -0 -0 0 0 0 0 0 0 0 0 0 -0 0 0 0 0 0 0 0 0 0 0 0 0 0 0 0 0 0 0 0 0 0 0 0 0 0 0 0 0
0 0 -0 0 0 0 0 0 0 0 0 -0 0 -0 -0 0 0 0 0 -0 0 0 0 0 0 0 0 0 0 0 0 0 0 0 0 0 0 0 0 0 0 0 0
-0 0 0 0 0 0 0 0 -0 -0 -0 -0 0 0 0 0 0 -0 -0 0 0 0 0 0 0 0 0 0 0 0 0 0 0 0 0 0 0 0 0 0 0 0 0
0 0 0 0 0 0 0 -0 0 -0 0 0 0 0 0 -0 -0 0 0 0 0 0 0 0 0 0 0 0 0 0 0 0 0 0 0 0 0 0 0 0 0 0 0
0 0 0 -0 0 0 -0 0 0 0 -0 0 -0 0 -0 -0 -0 -0 -0 -0 0 0 0 0 0 0 0 0 0 0 0 0 0 0 0 0 0 0 0 0 -0 0 0
-0 -0 -0 -0 0 0 0 0 0 -0 -0 0 -0 -0 -0 -0 -0 -0 -0 0 0 0 0 0 0 0 0 0 0 0 0 0 0 0 0 0 0 0 0 -0 -0 -0 0
Wind_Speed_500mb
57 62 69 72 73 77 86 88 94 98 98 104 104 108 106 107 106 109 110 110 113 111 109 107 104 96 95 88 83 81 80 76 84 82 75 68 68 65 65 66 67 70 73
51 48 49 50 55 63 69 73 75 82 85 93 98 100 103 104 106 109 115 118 121 122 121 117 116 107 106 97 92 92 89 84 86 87 79 75 72 69 71 71 72 74 74
56 52 51 55 61 66 70 72 74 77 82 81 85 96 97 101 103 104 108 115 122 126 126 126 126 119 117 108 103 100 95 89 89 86 84 77 74 73 74 74 76 74 72
51 49 52 49 58 74 81 83 74 70 76 80 84 87 92 93 103 105 108 109 112 119 126 129 130 130 126 117 110 105 98 93 91 86 82 78 75 74 75 77 74 74 72
64 58 57 61 66 71 74 77 79 75 80 80 77 78 85 93 97 105 108 113 115 114 117 121 128 131 127 121 114 110 101 97 92 87 83 80 77 75 74 69 71 72 77
89 92 88 89 89 94 88 86 83 89 89 87 86 81 80 82 81 88 103 110 117 117 118 121 119 123 128 124 117 110 103 96 89 87 84 80 79 74 66 64 66 71 71
94 102 108 103 98 93 91 87 91 90 89 94 99 101 104 103 99 93 90 88 101 113 120 114 112 115 117 120 117 111 105 96 88 83 79 79 75 66 60 64 65 71 73
100 97 98 93 95 101 104 92 88 87 88 93 95 95 104 108 105 105 101 102 105 103 111 117 111 107 109 109 106 110 108 95 87 83 77 67 62 60 57 59 66 71 75
101 105 99 95 101 100 95 90 92 95 90 90 90 91 94 102 103 103 101 99 109 106 110 115 118 112 104 101 89 103 102 90 76 69 66 62 60 56 48 61 63 65 72
96 98 98 99 94 93 88 96 96 92 91 90 92 89 90 95 101 98 95 89 103 111 104 113 104 103 101 85 84 98 96 87 76 68 60 56 58 54 54 57 57 59 58
92 96 99 101 97 99 100 93 88 85 89 87 92 92 88 90 94 88 84 81 93 92 101 102 98 97 99 85 88 89 87 74 65 62 56 54 52 54 51 52 51 53 55
102 104 107 110 108 106 98 96 91 83 83 86 89 91 90 87 85 82 72 73 86 90 90 99 97 96 89 77 87 74 68 66 60 53 49 51 50 48 49 48 48 52 53
109 109 110 116 118 113 107 103 99 87 84 85 86 88 89 90 82 73 64 61 70 88 93 95 90 80 67 71 61 62 66 59 48 44 46 46 48 48 47 46 48 52 54
115 117 116 111 109 108 108 96 91 93 87 84 84 83 84 84 82 69 60 55 54 82 87 73 64 61 69 67 55 60 50 40 37 39 43 46 46 45 42 46 50 51 59
119 113 108 104 100 98 101 97 90 95 89 85 79 77 82 85 70 57 47 45 57 77 75 60 72 74 70 65 57 44 38 33 34 40 42 42 41 42 40 42 47 49 57
110 105 103 104 103 97 92 103 92 89 86 78 67 65 69 70 60 49 37 45 57 69 64 68 73 76 70 55 42 34 29 32 37 38 38 38 37 38 41 42 46 49 58
106 105 104 108 101 96 94 84 90 99 81 82 70 49 60 50 38 30 36 44 59 56 50 66 66 54 42 32 28 27 30 33 34 34 34 33 35 37 42 45 47 52 58
108 109 107 106 98 97 93 87 86 86 90 79 53 30 38 27 15 39 47 59 51 42 43 45 38 31 26 25 28 28 30 30 29 29 30 31 36 39 43 46 48 53 58
107 106 105 104 94 89 82 88 83 72 53 36 19 18 8 16 45 51 54 43 32 35 36 32 26 24 26 26 25 25 25 25 24 26 29 32 34 39 44 47 51 54 59
102 101 91 70 75 87 89 65 43 23 22 27 19 29 47 59 54 45 34 27 29 29 26 25 26 23 21 19 19 20 20 20 22 25 28 32 34 39 44 48 51 58 62
91 75 90 99 89 62 35 23 15 25 30 33 38 44 48 44 45 38 27 25 24 25 23 20 18 16 14 13 14 16 17 19 23 27 31 33 36 41 44 48 54 58 64
102 102 88 78 40 19 9 13 33 46 55 60 57 50 34 29 32 28 27 25 22 20 17 13 11 9 9 11 14 17 20 21 24 30 34 36 40 42 45 52 55 59 66
82 57 39 15 6 7 19 34 46 47 51 49 43 35 27 28 28 26 23 20 17 13 10 7 5 7 10 14 18 22 24 25 29 33 37 41 42 45 49 53 56 66 74
26 11 7 15 21 27 33 41 40 38 40 40 34 30 28 27 24 21 17 13 9 5 1 3 7 12 15 18 22 27 31 32 34 36 40 43 47 48 49 55 64 71 76
2 14 22 30 35 39 42 43 45 44 38 36 33 30 27 23 19 15 12 8 6 6 8 11 14 17 20 22 26 28 30 33 37 36 40 46 48 47 53 63 68 72 78
18 27 37 43 47 51 56 56 48 42 39 35 32 28 23 19 15 12 9 8 9 11 14 18 21 23 25 26 27 29 31 32 32 34 40 42 45 53 60 67 72 82 88
Wind_Direction_500mb
312 310 306 305 305 302 297 296 294 291 287 283 281 278 275 270 265 261 258 257 254 253 251 250 250 248 248 247 247 249 249 249 254 262 265 270 273 278 282 286 291 294 298
346 335 326 320 314 308 305 304 302 296 294 288 283 281 279 277 273 267 262 259 257 255 252 251 251 250 248 247 247 248 249 252 254 259 266 269 274 278 282 286 289 294 294
334 325 325 325 322 318 315 311 306 301 296 293 288 280 279 277 276 274 272 267 262 260 257 254 253 250 249 246 246 248 248 250 254 256 263 268 272 277 281 285 288 290 295
319 314 318 326 328 327 318 311 308 305 300 297 293 288 282 280 276 274 272 271 270 266 263 259 257 254 252 249 247 248 250 250 253 256 260 264 268 274 279 284 288 294 298
309 309 307 308 311 312 307 304 305 304 302 300 293 291 287 280 279 273 271 270 269 269 267 264 260 258 257 254 251 251 250 250 251 254 256 260 266 271 278 284 289 296 297
305 302 301 303 302 304 298 298 293 290 290 287 283 286 288 286 285 278 270 268 266 266 266 265 264 261 259 256 252 252 253 253 253 253 256 260 267 272 276 283 288 293 297
307 302 298 299 297 297 292 287 288 284 287 290 282 278 278 279 279 278 275 266 261 263 262 265 264 264 261 258 254 250 249 248 249 251 254 260 264 269 277 282 286 288 291
310 310 309 306 307 305 300 299 299 292 285 286 287 283 280 276 275 277 275 268 260 259 257 260 260 262 261 259 255 245 241 241 242 246 252 258 264 272 275 280 284 288 291
314 309 310 309 306 309 305 306 305 305 303 297 288 285 282 278 276 276 274 260 257 261 258 257 256 259 255 255 243 239 234 234 236 242 249 257 263 267 265 275 278 284 290
317 318 317 316 316 315 312 309 308 305 305 300 298 290 285 282 279 278 274 263 250 258 262 256 246 245 246 241 232 233 230 229 232 236 245 251 264 270 272 274 280 284 290
322 322 317 315 311 309 308 307 310 302 302 304 302 297 292 288 284 280 277 260 253 256 258 249 239 240 245 240 229 231 233 230 229 235 241 257 261 267 269 271 276 279 284
319 318 317 316 312 311 306 304 306 305 304 304 304 302 297 292 290 287 280 271 254 247 256 245 242 246 241 223 225 222 218 222 226 235 248 258 263 266 267 269 272 274 280
315 314 313 313 311 309 305 300 300 303 302 305 304 302 299 296 294 291 285 274 256 246 249 246 246 240 215 193 212 216 223 225 228 240 256 258 261 263 266 268 270 277 283
312 313 312 307 301 296 300 292 294 298 300 305 305 299 296 292 293 299 293 282 255 242 240 229 228 190 184 193 195 218 218 228 243 255 252 255 259 262 267 272 278 286 292
310 307 305 301 297 294 294 292 293 297 300 302 298 295 293 289 296 301 296 266 237 232 215 196 181 187 196 201 206 211 223 244 249 248 252 255 259 265 272 279 286 293 298
304 302 301 299 295 293 290 295 298 297 300 298 295 290 287 282 292 293 269 235 227 218 203 192 191 197 199 198 206 221 237 241 244 249 254 259 267 275 281 285 290 297 301
302 300 299 298 293 290 288 285 290 309 298 301 301 287 271 277 285 245 227 204 200 198 201 198 191 187 188 200 218 228 231 237 244 249 258 270 278 284 288 291 297 301 303
301 301 299 297 293 293 292 289 287 283 291 302 304 266 254 271 225 189 169 184 184 187 185 177 179 188 198 206 212 221 231 239 246 259 270 278 283 288 290 295 299 303 306
302 301 300 300 303 302 302 300 281 281 293 285 229 206 237 152 157 158 181 196 180 167 168 174 182 191 196 205 214 224 235 248 260 270 277 282 285 289 293 298 302 305 308
301 304 305 309 308 304 308 299 289 279 225 191 164 149 157 157 157 161 164 156 152 155 163 174 181 188 195 208 223 237 249 262 271 279 283 284 289 292 297 301 305 308 310
305 298 296 308 309 301 290 278 249 189 168 147 140 147 153 163 153 157 155 143 144 156 162 167 176 188 203 223 243 261 270 278 283 284 286 293 296 297 302 304 307 309 310
304 308 302 302 292 279 259 185 153 141 136 134 131 135 144 146 150 149 148 147 147 148 151 162 180 200 230 257 271 280 285 288 291 294 298 299 299 303 306 307 309 311 312
303 297 291 277 213 137 137 144 145 144 141 137 141 142 137 135 138 138 136 133 133 139 152 172 224 266 279 286 289 292 298 303 302 300 300 302 305 308 309 309 311 312 313
307 287 186 132 127 126 130 140 140 139 141 139 139 134 134 133 129 126 124 125 124 119 93 315 299 301 303 304 307 308 309 306 304 304 302 304 307 311 311 311 312 313 314
152 140 132 125 122 126 130 134 134 134 131 131 132 129 124 120 118 113 102 82 54 9 343 327 322 321 318 311 306 305 304 303 303 305 306 305 309 313 313 311 313 314 313
129 130 124 122 124 126 127 128 127 126 125 122 120 117 111 104 92 77 60 34 8 352 342 336 329 323 318 315 311 309 307 304 302 304 307 309 311 312 313 315 317 316 316
Wind_Speed_850mb
57 62 69 72 73 77 86 88 94 98 98 104 104 108 106 107 106 109 110 110 113 111 109 107 104 96 95 88 83 81 80 76 84 82 75 68 68 65 65 66 67 70 73
51 48 49 50 55 63 69 73 75 82 85 93 98 100 103 104 106 109 115 118 121 122 121 117 116 107 106 97 92 92 89 84 86 87 79 75 72 69 71 71 72 74 74
56 52 51 55 61 66 70 72 74 77 82 81 85 96 97 101 103 104 108 115 122 126 126 126 126 119 117 108 103 100 95 89 89 86 84 77 74 73 74 74 76 74 72
51 49 52 49 58 74 81 83 74 70 76 80 84 87 92 93 103 105 108 109 112 119 126 129 130 130 126 117 110 105 98 93 91 86 82 78 75 74 75 77 74 74 72
64 58 57 61 66 71 74 77 79 75 80 80 77 78 85 93 97 105 108 113 115 114 117 121 128 131 127 121 114 110 101 97 92 87 83 80 77 75 74 69 71 72 77
89 92 88 89 89 94 88 86 83 89 89 87 86 81 80 82 81 88 103 110 117 117 118 121 119 123 128 124 117 110 103 96 89 87 84 80 79 74 66 64 66 71 71
94 102 108 103 98 93 91 87 91 90 89 94 99 101 104 103 99 93 90 88 101 113 120 114 112 115 117 120 117 111 105 96 88 83 79 79 75 66 60 64 65 71 73
100 97 98 93 95 101 104 92 88 87 88 93 95 95 104 108 105 105 101 102 105 103 111 117 111 107 109 109 106 110 108 95 87 83 77 67 62 60 57 59 66 71 75
101 105 99 95 101 100 95 90 92 95 90 90 90 91 94 102 103 103 101 99 109 106 110 115 118 112 104 101 89 103 102 90 76 69 66 62 60 56 48 61 63 65 72
96 98 98 99 94 93 88 96 96 92 91 90 92 89 90 95 101 98 95 89 103 111 104 113 104 103 101 85 84 98 96 87 76 68 60 56 58 54 54 57 57 59 58
92 96 99 101 97 99 100 93 88 85 89 87 92 92 88 90 94 88 84 81 93 92 101 102 98 97 99 85 88 89 87 74 65 62 56 54 52 54 51 52 51 53 55
102 104 107 110 108 106 98 96 91 83 83 86 89 91 90 87 85 82 72 73 86 90 90 99 97 96 89 77 87 74 68 66 60 53 49 51 50 48 49 48 48 52 53
109 109 110 116 118 113 107 103 99 87 84 85 86 88 89 90 82 73 64 61 70 88 93 95 90 80 67 71 61 62 66 59 48 44 46 46 48 48 47 46 48 52 54
115 117 116 111 109 108 108 96 91 93 87 84 84 83 84 84 82 69 60 55 54 82 87 73 64 61 69 67 55 60 50 40 37 39 43 46 46 45 42 46 50 51 59
119 113 108 104 100 98 101 97 90 95 89 85 79 77 82 85 70 57 47 45 57 77 75 60 72 74 70 65 57 44 38 33 34 40 42 42 41 42 40 42 47 49 57
110 105 103 104 103 97 92 103 92 89 86 78 67 65 69 70 60 49 37 45 57 69 64 68 73 76 70 55 42 34 29 32 37 38 38 38 37 38 41 42 46 49 58
106 105 104 108 101 96 94 84 90 99 81 82 70 49 60 50 38 30 36 44 59 56 50 66 66 54 42 32 28 27 30 33 34 34 34 33 35 37 42 45 47 52 58
108 109 107 106 98 97 93 87 86 86 90 79 53 30 38 27 15 39 47 59 51 42 43 45 38 31 26 25 28 28 30 30 29 29 30 31 36 39 43 46 48 53 58
107 106 105 104 94 89 82 88 83 72 53 36 19 18 8 16 45 51 54 43 32 35 36 32 26 24 26 26 25 25 25 25 24 26 29 32 34 39 44 47 51 54 59
102 101 91 70 75 87 89 65 43 23 22 27 19 29 47 59 54 45 34 27 29 29 26 25 26 23 21 19 19 20 20 20 22 25 28 32 34 39 44 48 51 58 62
91 75 90 99 89 62 35 23 15 25 30 33 38 44 48 44 45 38 27 25 24 25 23 20 18 16 14 13 14 16 17 19 23 27 31 33 36 41 44 48 54 58 64
102 102 88 78 40 19 9 13 33 46 55 60 57 50 34 29 32 28 27 25 22 20 17 13 11 9 9 11 14 17 20 21 24 30 34 36 40 42 45 52 55 59 66
82 57 39 15 6 7 19 34 46 47 51 49 43 35 27 28 28 26 23 20 17 13 10 7 5 7 10 14 18 22 24 25 29 33 37 41 42 45 49 53 56 66 74
26 11 7 15 21 27 33 41 40 38 40 40 34 30 28 27 24 21 17 13 9 5 1 3 7 12 15 18 22 27 31 32 34 36 40 43 47 48 49 55 64 71 76
2 14 22 30 35 39 42 43 45 44 38 36 33 30 27 23 19 15 12 8 6 6 8 11 14 17 20 22 26 28 30 33 37 36 40 46 48 47 53 63 68 72 78
18 27 37 43 47 51 56 56 48 42 39 35 32 28 23 19 15 12 9 8 9 11 14 18 21 23 25 26 27 29 31 32 32 34 40 42 45 53 60 67 72 82 88
Wind_Direction_850mb
312 310 306 305 305 302 297 296 294 291 287 283 281 278 275 270 265 261 258 257 254 253 251 250 250 248 248 247 247 249 249 249 254 262 265 270 273 278 282 286 291 294 298
346 335 326 320 314 308 305 304 302 296 294 288 283 281 279 277 273 267 262 259 257 255 252 251 251 250 248 247 247 248 249 252 254 259 266 269 274 278 282 286 289 294 294
334 325 325 325 322 318 315 311 306 301 296 293 288 280 279 277 276 274 272 267 262 260 257 254 253 250 249 246 246 248 248 250 254 256 263 268 272 277 281 285 288 290 295
319 314 318 326 328 327 318 311 308 305 300 297 293 288 282 280 276 274 272 271 270 266 263 259 257 254 252 249 247 248 250 250 253 256 260 264 268 274 279 284 288 294 298
309 309 307 308 311 312 307 304 305 304 302 300 293 291 287 280 279 273 271 270 269 269 267 264 260 258 257 254 251 251 250 250 251 254 256 260 266 271 278 284 289 296 297
305 302 301 303 302 304 298 298 293 290 290 287 283 286 288 286 285 278 270 268 266 266 266 265 264 261 259 256 252 252 253 253 253 253 256 260 267 272 276 283 288 293 297
307 302 298 299 297 297 292 287 288 284 287 290 282 278 278 279 279 278 275 266 261 263 262 265 264 264 261 258 254 250 249 248 249 251 254 260 264 269 277 282 286 288 291
310 310 309 306 307 305 300 299 299 292 285 286 287 283 280 276 275 277 275 268 260 259 257 260 260 262 261 259 255 245 241 241 242 246 252 258 264 272 275 280 284 288 291
314 309 310 309 306 309 305 306 305 305 303 297 288 285 282 278 276 276 274 260 257 261 258 257 256 259 255 255 243 239 234 234 236 242 249 257 263 267 265 275 278 284 290
317 318 317 316 316 315 312 309 308 305 305 300 298 290 285 282 279 278 274 263 250 258 262 256 246 245 246 241 232 233 230 229 232 236 245 251 264 270 272 274 280 284 290
322 322 317 315 311 309 308 307 310 302 302 304 302 297 292 288 284 280 277 260 253 256 258 249 239 240 245 240 229 231 233 230 229 235 241 257 261 267 269 271 276 279 284
319 318 317 316 312 311 306 304 306 305 304 304 304 302 297 292 290 287 280 271 254 247 256 245 242 246 241 223 225 222 218 222 226 235 248 258 263 266 267 269 272 274 280
315 314 313 313 311 309 305 300 300 303 302 305 304 302 299 296 294 291 285 274 256 246 249 246 246 240 215 193 212 216 223 225 228 240 256 258 261 263 266 268 270 277 283
312 313 312 307 301 296 300 292 294 298 300 305 305 299 296 292 293 299 293 282 255 242 240 229 228 190 184 193 195 218 218 228 243 255 252 255 259 262 267 272 278 286 292
310 307 305 301 297 294 294 292 293 297 300 302 298 295 293 289 296 301 296 266 237 232 215 196 181 187 196 201 206 211 223 244 249 248 252 255 259 265 272 279 286 293 298
304 302 301 299 295 293 290 295 298 297 300 298 295 290 287 282 292 293 269 235 227 218 203 192 191 197 199 198 206 221 237 241 244 249 254 259 267 275 281 285 290 297 301
302 300 299 298 293 290 288 285 290 309 298 301 301 287 271 277 285 245 227 204 200 198 201 198 191 187 188 200 218 228 231 237 244 249 258 270 278 284 288 291 297 301 303
301 301 299 297 293 293 292 289 287 283 291 302 304 266 254 271 225 189 169 184 184 187 185 177 179 188 198 206 212 221 231 239 246 259 270 278 283 288 290 295 299 303 306
302 301 300 300 303 302 302 300 281 281 293 285 229 206 237 152 157 158 181 196 180 167 168 174 182 191 196 205 214 224 235 248 260 270 277 282 285 289 293 298 302 305 308
301 304 305 309 308 304 308 299 289 279 225 191 164 149 157 157 157 161 164 156 152 155 163 174 181 188 195 208 223 237 249 262 271 279 283 284 289 292 297 301 305 308 310
305 298 296 308 309 301 290 278 249 189 168 147 140 147 153 163 153 157 155 143 144 156 162 167 176 188 203 223 243 261 270 278 283 284 286 293 296 297 302 304 307 309 310
304 308 302 302 292 279 259 185 153 141 136 134 131 135 144 146 150 149 148 147 147 148 151 162 180 200 230 257 271 280 285 288 291 294 298 299 299 303 306 307 309 311 312
303 297 291 277 213 137 137 144 145 144 141 137 141 142 137 135 138 138 136 133 133 139 152 172 224 266 279 286 289 292 298 303 302 300 300 302 305 308 309 309 311 312 313
307 287 186 132 127 126 130 140 140 139 141 139 139 134 134 133 129 126 124 125 124 119 93 315 299 301 303 304 307 308 309 306 304 304 302 304 307 311 311 311 312 313 314
152 140 132 125 122 126 130 134 134 134 131 131 132 129 124 120 118 113 102 82 54 9 343 327 322 321 318 311 306 305 304 303 303 305 306 305 309 313 313 311 313 314 313
129 130 124 122 124 126 127 128 127 126 125 122 120 117 111 104 92 77 60 34 8 352 342 336 329 323 318 315 311 309 307 304 302 304 307 309 311 312 313 315 317 316 316